This is the latest recevied weather packets stored in our database for station/object W2TAO. If no packets are shown the sender has not sent any weather packets the latest 10 day(s).
| Time | Temp. | Humidity | Pressure | Rain* | Wind** | Luminosity | Snow |
|---|---|---|---|---|---|---|---|
| 1777843719 | 12.78° C | 37% | 1011.4 hPa | 0 mm | - | 167 W/m² | - |
| 1777843416 | 12.78° C | 39% | 1011.2 hPa | 0 mm | - | 190 W/m² | - |
| 1777843113 | 13.33° C | 34% | 1011.3 hPa | 0 mm | - | 191 W/m² | - |
| 1777842810 | 13.33° C | 33% | 1011.3 hPa | 0 mm | - | 401 W/m² | - |
| 1777842505 | 12.78° C | 34% | 1011.2 hPa | 0 mm | - | 111 W/m² | - |
| 1777842203 | 13.33° C | 35% | 1011.3 hPa | 0 mm | - | 418 W/m² | - |
| 1777841897 | 12.78° C | 36% | 1011.2 hPa | 0 mm | - | 479 W/m² | - |
| 1777841594 | 13.33° C | 34% | 1011.3 hPa | 0 mm | - | 314 W/m² | - |
| 1777841291 | 13.33° C | 33% | 1011.2 hPa | 0 mm | - | 504 W/m² | - |
| 1777840989 | 13.89° C | 36% | 1011.2 hPa | 0 mm | - | 541 W/m² | - |
| 1777840686 | 13.89° C | 34% | 1011.2 hPa | 0 mm | - | 128 W/m² | - |
| 1777840383 | 13.89° C | 36% | 1011.2 hPa | 0 mm | - | 568 W/m² | - |
| 1777840080 | 13.89° C | 35% | 1011.4 hPa | 0 mm | - | 587 W/m² | - |
| 1777839778 | 12.78° C | 32% | 1011.4 hPa | 0 mm | - | 584 W/m² | - |
| 1777839475 | 13.33° C | 35% | 1011.3 hPa | 0 mm | - | 583 W/m² | - |
| 1777839173 | 13.33° C | 33% | 1011.3 hPa | 0 mm | - | 583 W/m² | - |
| 1777838870 | 13.33° C | 36% | 1011.5 hPa | 0 mm | - | 620 W/m² | - |
| 1777838565 | 11.67° C | 33% | 1011.5 hPa | 0 mm | - | 635 W/m² | - |
| 1777838263 | 12.22° C | 37% | 1011.5 hPa | 0 mm | - | 122 W/m² | - |
| 1777837959 | 12.22° C | 33% | 1011.7 hPa | 0 mm | - | 129 W/m² | - |
| 1777837657 | 11.67° C | 34% | 1011.9 hPa | 0 mm | - | 686 W/m² | - |
| 1777837353 | 12.22° C | 36% | 1011.6 hPa | 0 mm | - | 167 W/m² | - |
| 1777837049 | 12.22° C | 33% | 1011.7 hPa | 0 mm | - | 161 W/m² | - |
| 1777836745 | 12.78° C | 35% | 1011.7 hPa | 0 mm | - | 126 W/m² | - |
| 1777836441 | 12.22° C | 33% | 1011.8 hPa | 0 mm | - | 755 W/m² | - |
* Rain latest hour (hover to see other rain measurements)
** Current wind speed in m/s (hover to see current wind gust speed)